UK-DMC 2

Last updated on Wed Aug 19 2026 00:02:51 GMT+0000 (Coordinated Universal Time)

1 35683U 09041C 26230.59060003 .00000118 00000+0 24280-4 0 9994 2 35683 97.8923 4.0626 0001785 76.7667 283.3742 14.76107403915774
UTC large
Height (km)
Speed (km/s)
/
Latitude / Longitude
Inclination (degrees)
Orbital Period (minutes)
Azimuth
Elevation
Range (km)
Doppler Factor

Next 0 passes for location: London (51.5072 / 0.1276)

No passes found over London.
UK-DMC 2